| time (UTC) | temp F | wind direction | speed knots | gust knots | rain 1hr in | rain 24hr in | rain mn in | humidity % | barometer mb |
| 20260507073025 | 52 | 201 | 0.0 | 5.2 | 0.00 | 0.00 | 0.00 | 53 | 1015.4 |
| 20260507071521 | 52 | 180 | 0.9 | 4.3 | 0.00 | 0.00 | 0.00 | 56 | 1015.3 |
| 20260507070017 | 52 | 205 | 0.0 | 0.9 | 0.00 | 0.00 | 0.00 | 57 | 1015.2 |
| 20260507064512 | 50 | 158 | 0.0 | 0.9 | 0.00 | 0.00 | 0.00 | 66 | 1015.2 |
| 20260507063009 | 50 | 152 | 0.0 | 0.0 | 0.00 | 0.00 | 0.00 | 69 | 1015.1 |
| 20260507061504 | 49 | 167 | 0.0 | 0.0 | 0.00 | 0.00 | 0.00 | 69 | 1015.1 |
| 20260507060104 | 46 | 174 | 0.0 | 0.0 | 0.00 | 0.00 | 0.00 | 69 | 1015.1 |
| 20260507054558 | 44 | 174 | 0.0 | 0.0 | 0.00 | 0.00 | 0.00 | 67 | 1015.0 |
| 20260507053052 | 42 | 176 | 0.0 | 0.0 | 0.00 | 0.00 | 0.00 | 61 | 1014.9 |
| 20260507051547 | 41 | 176 | 0.0 | 0.0 | 0.00 | 0.00 | 0.00 | 21 | 1014.6 |
| 20260507050044 | 36 | 176 | 0.0 | 0.0 | 0.00 | 0.00 | 0.00 | 28 | 1014.6 |
| 20260507044539 | 34 | 176 | 0.0 | 0.0 | 0.00 | 0.00 | 0.00 | 12 | 1014.6 |
| 20260507043043 | 32 | 176 | 0.0 | 0.0 | 0.00 | 0.00 | 0.00 | 15 | 1014.5 |
| 20260507041530 | 30 | 176 | 0.0 | 0.0 | 0.00 | 0.00 | 0.00 | 9 | 1014.4 |
| 20260507040026 | 29 | 176 | 0.0 | 0.0 | 0.00 | 0.00 | 0.00 | 12 | 1014.4 |
| 20260507034528 | 28 | 176 | 0.0 | 0.0 | 0.00 | 0.00 | 0.00 | 15 | 1014.3 |
| 20260507033018 | 28 | 176 | 0.0 | 0.0 | 0.00 | 0.00 | 0.00 | 17 | 1014.1 |
| 20260507031517 | 29 | 176 | 0.0 | 0.0 | 0.00 | 0.00 | 0.00 | 15 | 1014.0 |
| 20260507030010 | 29 | 176 | 0.0 | 0.0 | 0.00 | 0.00 | 0.00 | 16 | 1014.0 |
| 20260507024510 | 29 | 176 | 0.0 | 0.0 | 0.00 | 0.00 | 0.00 | 20 | 1014.0 |
| 20260507023110 | 29 | 176 | 0.0 | 0.0 | 0.00 | 0.00 | 0.00 | 20 | 1013.9 |
| 20260507021556 | 29 | 176 | 0.0 | 0.0 | 0.00 | 0.00 | 0.00 | 22 | 1013.9 |
| 20260507020058 | 29 | 176 | 0.0 | 0.0 | 0.00 | 0.00 | 0.00 | 24 | 1013.7 |
| 20260507014547 | 29 | 176 | 0.0 | 0.0 | 0.00 | 0.00 | 0.00 | 23 | 1013.6 |
| 20260507013042 | 29 | 176 | 0.0 | 0.0 | 0.00 | 0.00 | 0.00 | 28 | 1013.5 |
| 20260507011545 | 29 | 176 | 0.0 | 0.0 | 0.00 | 0.00 | 0.00 | 31 | 1013.5 |
| 20260507010036 | 30 | 176 | 0.0 | 0.0 | 0.00 | 0.00 | 0.00 | 31 | 1013.4 |
| 20260507004532 | 30 | 176 | 0.0 | 0.0 | 0.00 | 0.00 | 0.00 | 25 | 1013.4 |
| 20260507003027 | 30 | 176 | 0.0 | 0.0 | 0.00 | 0.00 | 0.00 | 34 | 1013.3 |
| 20260507001558 | 30 | 176 | 0.0 | 0.0 | 0.00 | 0.00 | 0.00 | 36 | 1013.2 |
| 20260507000024 | 31 | 176 | 0.0 | 0.0 | 0.00 | 0.00 | 0.00 | 38 | 1013.2 |
| 20260506234521 | 31 | 176 | 0.0 | 0.0 | 0.00 | 0.00 | 0.00 | 33 | 1013.1 |
| 20260506233019 | 31 | 176 | 0.0 | 0.0 | 0.00 | 0.00 | 0.00 | 41 | 1013.1 |
| 20260506231517 | 31 | 176 | 0.0 | 0.0 | 0.00 | 0.00 | 0.00 | 46 | 1013.0 |
| 20260506230012 | 32 | 176 | 0.0 | 0.0 | 0.00 | 0.00 | 0.00 | 53 | 1012.9 |
| 20260506224508 | 33 | 176 | 0.0 | 0.0 | 0.00 | 0.00 | 0.00 | 58 | 1012.8 |
| 20260506223004 | 34 | 176 | 0.0 | 0.0 | 0.00 | 0.00 | 0.00 | 62 | 1012.7 |
| 20260506221501 | 34 | 176 | 0.0 | 0.0 | 0.00 | 0.00 | 0.00 | 64 | 1012.7 |
| 20260506220101 | 34 | 176 | 0.0 | 0.0 | 0.00 | 0.00 | 0.00 | 66 | 1012.6 |
| 20260506214556 | 35 | 176 | 0.0 | 0.0 | 0.00 | 0.00 | 0.00 | 68 | 1012.4 |
| 20260506213050 | 35 | 176 | 0.0 | 0.0 | 0.00 | 0.00 | 0.00 | 68 | 1012.3 |
| 20260506211546 | 35 | 176 | 0.0 | 0.0 | 0.00 | 0.00 | 0.00 | 68 | 1012.2 |
| 20260506210052 | 36 | 176 | 0.0 | 0.0 | 0.00 | 0.00 | 0.00 | 69 | 1012.2 |
| 20260506204540 | 36 | 175 | 0.0 | 0.0 | 0.00 | 0.00 | 0.00 | 69 | 1012.1 |
| 20260506203036 | 37 | 175 | 0.0 | 0.0 | 0.00 | 0.00 | 0.00 | 70 | 1012.1 |
| 20260506201529 | 37 | 175 | 0.0 | 0.0 | 0.00 | 0.00 | 0.00 | 70 | 1012.0 |
| 20260506200024 | 38 | 175 | 0.0 | 0.0 | 0.00 | 0.00 | 0.00 | 70 | 1011.9 |
| 20260506194520 | 40 | 175 | 0.0 | 0.0 | 0.00 | 0.00 | 0.00 | 69 | 1011.9 |
| 20260506193022 | 41 | 175 | 0.0 | 0.0 | 0.00 | 0.00 | 0.00 | 67 | 1011.7 |
| 20260506191512 | 42 | 175 | 0.0 | 0.0 | 0.00 | 0.00 | 0.00 | 64 | 1011.5 |
| 20260506190011 | 44 | 175 | 0.0 | 0.0 | 0.00 | 0.00 | 0.00 | 60 | 1011.4 |
| 20260506184503 | 47 | 175 | 0.0 | 0.0 | 0.00 | 0.00 | 0.00 | 54 | 1011.3 |
| 20260506183106 | 51 | 170 | 0.0 | 0.0 | 0.00 | 0.00 | 0.00 | 46 | 1011.2 |
| 20260506181556 | 54 | 178 | 0.0 | 2.6 | 0.00 | 0.00 | 0.00 | 40 | 1011.2 |
| 20260506180051 | 54 | 206 | 1.7 | 4.3 | 0.00 | 0.00 | 0.00 | 39 | 1011.3 |
| 20260506174543 | 54 | 159 | 1.7 | 5.2 | 0.00 | 0.00 | 0.00 | 40 | 1011.2 |
| 20260506173044 | 54 | 141 | 3.5 | 7.8 | 0.00 | 0.00 | 0.00 | 41 | 1011.1 |
| 20260506171536 | 55 | 183 | 1.7 | 8.7 | 0.00 | 0.00 | 0.00 | 42 | 1011.1 |
| 20260506170037 | 55 | 200 | 1.7 | 7.8 | 0.00 | 0.00 | 0.00 | 35 | 1011.0 |
| 20260506164543 | 56 | 161 | 3.5 | 8.7 | 0.00 | 0.00 | 0.00 | 34 | 1011.0 |
| 20260506163023 | 56 | 160 | 4.3 | 9.6 | 0.00 | 0.00 | 0.00 | 32 | 1011.1 |
| 20260506161521 | 56 | 217 | 7.0 | 10.4 | 0.00 | 0.00 | 0.00 | 33 | 1011.1 |
| 20260506160013 | 56 | 160 | 6.1 | 12.2 | 0.00 | 0.00 | 0.00 | 33 | 1011.0 |
| 20260506154507 | 56 | 183 | 6.1 | 9.6 | 0.00 | 0.00 | 0.00 | 32 | 1011.0 |
| 20260506153002 | 56 | 172 | 7.0 | 10.4 | 0.00 | 0.00 | 0.00 | 32 | 1011.1 |
| 20260506151604 | 57 | 179 | 6.1 | 11.3 | 0.00 | 0.00 | 0.00 | 34 | 1011.0 |
| 20260506150154 | 57 | 173 | 5.2 | 11.3 | 0.00 | 0.00 | 0.00 | 35 | 1011.1 |
| 20260506144548 | 58 | 205 | 1.7 | 7.8 | 0.00 | 0.00 | 0.00 | 33 | 1011.2 |
| 20260506143045 | 57 | 152 | 6.1 | 11.3 | 0.00 | 0.00 | 0.00 | 34 | 1011.2 |
| 20260506141543 | 57 | 213 | 6.1 | 9.6 | 0.00 | 0.00 | 0.00 | 34 | 1011.2 |
| 20260506140036 | 56 | 220 | 4.3 | 12.2 | 0.00 | 0.00 | 0.00 | 34 | 1011.2 |
| 20260506134531 | 57 | 140 | 5.2 | 12.2 | 0.00 | 0.00 | 0.00 | 33 | 1011.3 |
| 20260506133026 | 56 | 164 | 6.1 | 9.6 | 0.00 | 0.00 | 0.00 | 33 | 1011.2 |
| 20260506131522 | 56 | 153 | 5.2 | 13.0 | 0.00 | 0.00 | 0.00 | 33 | 1011.3 |
| 20260506130018 | 56 | 216 | 4.3 | 12.2 | 0.00 | 0.00 | 0.00 | 33 | 1011.4 |
| 20260506124513 | 56 | 158 | 5.2 | 11.3 | 0.00 | 0.00 | 0.00 | 33 | 1011.4 |
| 20260506123012 | 57 | 153 | 6.1 | 10.4 | 0.00 | 0.00 | 0.00 | 33 | 1011.5 |
| 20260506121510 | 57 | 165 | 7.8 | 12.2 | 0.00 | 0.00 | 0.00 | 33 | 1011.7 |
| 20260506120110 | 57 | 169 | 6.1 | 11.3 | 0.00 | 0.00 | 0.00 | 31 | 1011.6 |
| 20260506114555 | 57 | 150 | 3.5 | 11.3 | 0.00 | 0.00 | 0.00 | 32 | 1011.6 |
| 20260506113052 | 57 | 207 | 4.3 | 7.8 | 0.00 | 0.00 | 0.00 | 34 | 1011.6 |
| 20260506111549 | 56 | 160 | 4.3 | 10.4 | 0.00 | 0.00 | 0.00 | 33 | 1011.8 |
| 20260506110050 | 56 | 198 | 5.2 | 10.4 | 0.00 | 0.00 | 0.00 | 32 | 1011.7 |
| 20260506104548 | 56 | 194 | 6.1 | 9.6 | 0.00 | 0.00 | 0.00 | 33 | 1011.9 |
| 20260506103042 | 55 | 158 | 5.2 | 13.0 | 0.00 | 0.00 | 0.00 | 32 | 1012.0 |
| 20260506101529 | 54 | 207 | 3.5 | 10.4 | 0.00 | 0.00 | 0.00 | 34 | 1011.9 |
| 20260506100024 | 54 | 220 | 4.3 | 9.6 | 0.00 | 0.00 | 0.00 | 34 | 1012.1 |
| 20260506094520 | 54 | 155 | 4.3 | 9.6 | 0.00 | 0.00 | 0.00 | 34 | 1012.2 |
| 20260506093020 | 54 | 219 | 5.2 | 8.7 | 0.00 | 0.00 | 0.00 | 37 | 1012.2 |
| 20260506091512 | 53 | 113 | 4.3 | 8.7 | 0.00 | 0.00 | 0.00 | 36 | 1012.3 |
| 20260506090005 | 53 | 210 | 2.6 | 8.7 | 0.00 | 0.00 | 0.00 | 36 | 1012.4 |
| 20260506084502 | 52 | 198 | 3.5 | 9.6 | 0.00 | 0.00 | 0.00 | 38 | 1012.5 |
| 20260506083057 | 52 | 206 | 5.2 | 8.7 | 0.00 | 0.00 | 0.00 | 38 | 1012.5 |
| 20260506081557 | 52 | 208 | 0.9 | 6.1 | 0.00 | 0.00 | 0.00 | 39 | 1012.6 |